GFSNE_con_mlcape_021.txt.gz
CAPE
34 46 23 21 21 5 1 2 2 0 0 0 0 0 0 0 0 0 0 0 0 0 0 0 0 0 0 0 0 0 0 1 19 52 362 932 1052 1360
44 35 36 0 21 30 14 44 16 0 0 0 0 0 0 0 0 0 0 0 0 0 0 0 0 0 0 0 0 0 0 0 0 0 0 12 489 938
62 37 58 97 39 51 64 77 51 28 0 0 0 0 0 0 0 0 0 0 0 0 0 0 0 0 0 0 0 0 0 0 1 0 0 0 0 13
0 39 59 87 108 19 35 37 73 79 46 2 0 3 4 1 6 2 0 0 0 0 0 0 0 0 0 0 0 0 0 0 0 1 1 0 0 0
22 52 73 75 40 20 47 51 48 65 49 43 3 0 1 0 0 0 2 0 0 0 0 0 0 0 0 0 0 0 0 0 0 0 0 0 0 0
49 131 150 49 44 22 63 39 50 39 51 38 18 8 5 7 8 7 7 12 15 3 0 0 0 0 0 0 0 0 0 0 0 0 0 0 0 0
194 203 123 69 14 3 23 32 67 55 43 34 26 13 4 6 6 14 12 10 6 10 1 0 0 0 0 0 0 0 0 0 0 0 0 0 0 0
138 218 153 18 1 0 0 0 1 27 49 49 41 21 2 12 16 22 20 2 1 1 2 0 0 0 0 0 0 0 0 0 0 0 0 0 0 0
270 208 62 67 4 0 0 0 0 0 2 29 4 6 19 9 12 7 8 8 6 7 1 0 2 1 0 2 3 1 0 0 0 0 0 0 0 0
291 190 112 52 5 0 0 0 0 3 4 1 1 1 0 0 1 7 3 2 8 5 15 9 8 0 1 6 7 4 1 1 0 0 0 0 0 0
120 73 11 0 0 0 0 0 0 0 0 0 0 0 0 0 0 2 1 11 7 3 0 1 1 4 6 4 5 4 1 0 0 0 0 0 0 0
0 0 0 0 0 0 0 0 0 0 0 0 0 0 0 0 0 2 2 7 14 2 0 1 3 5 8 5 1 5 10 0 0 0 0 0 0 1
0 10 0 0 0 0 0 0 0 0 0 0 0 0 0 0 0 1 0 4 5 2 0 2 4 3 4 1 1 6 7 5 5 0 0 0 0 0
22 14 0 0 0 0 0 0 0 0 0 0 0 0 0 0 0 0 0 0 1 3 0 3 5 4 3 2 3 3 1 12 12 15 0 0 0 0
0 0 0 0 0 0 0 0 0 0 0 0 0 0 0 0 0 0 0 0 1 0 0 2 3 3 2 3 4 1 2 29 8 38 1 0 0 0
0 0 0 0 0 0 0 0 0 0 0 0 0 0 0 0 0 0 0 0 3 0 0 0 8 4 3 2 2 2 0 21 17 71 0 0 2 1
0 0 0 0 0 0 0 0 0 0 0 0 0 0 0 0 0 0 0 1 2 2 1 0 3 3 1 1 2 21 4 248 166 115 4 0 2 2
0 0 0 0 0 0 0 0 0 0 0 0 0 0 0 0 0 0 0 0 2 2 2 1 3 1 2 2 1 3 57 470 190 65 29 21 3 3
0 0 0 0 0 0 0 0 0 0 0 0 0 0 0 0 0 0 0 0 1 2 2 2 2 2 4 5 4 1 2 24 287 167 121 121 60 20
0 0 0 0 0 0 0 0 0 0 0 0 0 0 0 0 0 0 0 0 1 0 1 1 1 3 2 3 7 8 1 1 1 244 98 106 24 36
0 0 0 0 0 0 0 0 0 0 0 0 0 0 0 0 0 0 0 0 0 0 2 1 3 1 2 0 0 2 3 3 2 3 12 45 91 9
0 0 0 0 0 0 0 0 0 0 0 0 0 0 0 0 0 0 0 0 0 0 0 1 2 0 0 2 3 3 1 2 2 1 1 5 13 81
0 0 0 0 0 0 0 0 0 0 0 0 0 0 0 0 0 0 0 0 0 0 0 0 0 2 0 2 5 4 3 1 2 4 1 0 1 4

GFSNE_con_mlcape_024.txt.gz
CAPE
8 12 12 4 13 19 23 21 19 11 11 20 9 0 0 0 0 0 0 0 0 0 0 0 0 0 0 0 0 0 0 0 0 0 9 60 804 1158
10 16 49 13 19 32 37 32 32 27 11 14 3 8 9 0 0 0 3 0 0 0 0 0 0 0 0 0 0 0 0 0 0 0 0 0 5 125
34 19 45 106 46 40 58 45 46 28 3 0 0 3 13 31 16 10 11 9 3 0 0 0 0 0 0 0 0 0 0 0 0 0 0 0 0 0
44 52 72 88 79 132 39 31 29 51 35 2 0 2 12 27 34 22 16 6 5 0 0 0 0 0 0 0 0 0 0 0 0 0 0 0 0 0
52 93 110 98 95 73 52 18 36 43 46 48 16 2 6 19 35 44 20 9 5 3 0 0 0 0 0 0 0 0 0 0 0 0 0 0 0 0
160 198 206 146 110 74 76 15 36 69 61 55 53 32 18 18 38 35 34 32 15 20 11 1 0 0 0 0 0 0 0 0 0 0 0 0 0 0
312 274 291 254 157 79 37 3 66 15 45 40 34 38 40 68 66 40 17 29 14 40 12 1 0 1 0 0 0 0 0 0 0 0 0 0 0 0
379 373 389 358 119 44 2 0 0 0 24 26 6 14 37 44 15 28 26 22 7 0 0 3 5 7 11 10 0 0 0 0 0 0 0 0 0 0
596 650 270 204 106 181 120 7 0 0 0 0 16 26 14 16 13 14 17 12 3 0 10 3 21 13 19 11 9 0 0 0 0 0 0 0 0 0
151 84 57 97 195 156 106 64 44 39 49 45 32 28 22 7 2 0 3 5 5 3 3 13 43 28 21 8 0 0 0 0 0 0 0 0 0 0
32 18 19 44 41 3 12 11 9 1 0 0 0 0 0 0 0 3 1 8 15 13 15 40 24 36 20 0 1 0 0 0 0 0 0 0 0 0
7 6 0 2 0 0 0 0 1 0 5 1 0 1 0 8 3 1 3 12 35 24 5 33 19 6 1 1 0 2 3 0 0 0 0 0 0 0
12 0 17 0 0 0 0 0 0 0 0 0 0 0 2 10 31 19 23 10 8 0 0 14 8 2 3 3 1 1 2 1 15 0 0 0 0 0
72 168 108 0 0 0 0 0 0 0 0 1 0 0 3 2 3 0 0 0 0 1 7 22 4 2 3 4 4 2 0 3 1 1 14 0 0 0
83 2 0 0 0 0 0 0 0 0 2 0 0 0 0 0 0 0 0 0 0 12 26 28 8 3 6 5 6 2 4 0 0 4 0 25 0 0
0 0 0 0 0 0 0 0 0 1 0 0 0 0 0 0 0 0 0 0 3 5 1 9 1 6 3 3 4 5 8 5 0 47 11 36 11 0
16 4 0 0 2 5 12 10 1 0 0 0 0 0 0 0 0 0 0 0 13 2 9 5 0 3 3 1 0 3 3 3 1 44 7 34 25 3
0 0 7 20 19 21 13 2 0 0 0 0 0 0 0 0 0 0 0 0 7 5 7 21 2 1 0 2 0 0 2 5 60 234 41 39 0 1
0 0 2 9 11 9 0 0 0 0 0 0 0 0 0 0 0 0 0 0 6 5 0 34 1 2 1 2 0 5 3 5 3 111 69 239 132 5
0 0 2 7 6 0 0 0 0 0 0 0 0 0 0 0 0 0 0 0 2 0 0 0 2 3 2 2 7 2 0 3 7 4 230 410 196 288
0 0 0 0 0 0 0 0 0 0 0 0 0 0 0 0 0 0 0 0 0 2 0 0 0 2 2 0 2 3 1 0 3 5 4 304 385 216
0 0 0 0 0 0 0 0 0 0 0 0 0 0 0 0 0 0 0 0 2 3 1 1 0 0 0 3 4 3 3 2 3 2 3 3 4 243
0 0 0 0 0 0 0 0 0 0 0 0 0 0 0 0 0 0 0 0 0 0 5 0 0 0 3 5 4 3 3 3 2 2 2 3 1 4

GFSNE_con_mlcape_030.txt.gz
CAPE
87 52 21 1 0 1 4 3 7 0 0 19 38 42 43 0 0 0 0 1 0 0 0 0 0 0 0 0 0 0 0 0 0 0 0 0 0 0
103 26 110 16 7 7 2 20 17 16 0 13 15 50 67 40 26 20 12 10 4 0 0 0 0 0 0 0 0 0 0 0 0 0 0 0 0 0
46 27 61 15 0 0 54 9 16 22 1 0 8 39 32 45 38 43 51 44 44 38 18 6 0 0 0 0 0 0 0 0 0 0 0 0 0 0
208 166 40 151 60 68 21 27 8 15 23 17 6 39 0 68 62 41 33 35 28 30 18 0 2 0 0 0 0 0 0 0 0 0 0 0 0 0
155 224 130 129 129 45 97 68 69 67 66 5 36 65 9 30 30 61 38 37 18 23 11 7 3 0 0 0 0 0 0 0 0 0 0 0 0 0
289 218 281 217 117 115 64 56 109 87 81 21 6 26 75 69 67 16 1 20 9 16 17 21 0 0 0 0 0 0 0 0 0 0 0 0 0 0
261 275 216 397 279 241 132 172 60 16 2 0 0 0 0 0 0 0 3 6 8 3 0 0 0 0 0 0 0 0 0 0 0 0 0 0 0 0
302 533 393 371 204 66 39 22 11 3 9 7 3 0 0 9 22 7 13 0 0 0 0 0 0 0 0 0 0 0 6 0 0 0 0 0 0 0
656 601 685 654 543 181 30 5 17 6 7 5 4 2 19 44 37 26 12 0 0 0 0 0 0 0 0 0 3 14 4 0 0 0 0 0 0 0
609 638 637 808 580 338 92 22 8 32 55 18 4 13 36 60 87 10 0 0 0 0 0 5 0 0 9 32 16 14 2 0 0 0 0 0 0 0
310 488 719 1035 913 198 43 19 11 2 24 11 21 51 30 2 0 4 0 0 0 0 0 6 16 26 4 0 0 0 0 0 0 0 0 0 0 0
449 416 361 698 536 98 32 10 11 20 63 81 92 54 25 0 0 11 15 16 23 22 14 32 0 0 0 0 0 0 0 0 0 0 0 0 0 0
307 455 781 376 158 59 0 5 23 38 0 0 0 0 0 2 42 73 70 36 23 28 3 0 0 0 0 0 0 0 0 0 0 0 0 0 0 0
472 461 517 341 64 7 0 0 0 0 0 0 0 0 1 13 2 0 0 0 1 0 0 0 3 15 21 6 4 0 0 0 2 6 6 0 0 0
65 13 5 12 12 3 0 0 0 0 0 0 0 0 0 0 0 0 0 0 0 1 0 1 26 19 24 10 7 0 0 0 0 3 0 1 4 7
0 1 0 0 0 0 0 0 0 0 1 4 1 0 0 0 0 0 0 0 0 0 0 26 30 7 0 1 0 1 0 8 14 6 2 1 5 6
20 40 0 0 0 1 1 4 8 9 7 9 5 0 0 0 0 0 0 0 0 0 12 2 13 21 13 0 0 0 3 12 1 4 3 3 2 2
0 214 192 170 155 89 48 31 31 20 15 9 1 0 0 0 0 0 0 0 0 0 11 2 7 0 0 0 0 2 12 4 2 3 4 3 4 1
22 36 1 13 16 6 7 15 6 2 0 0 0 0 0 0 0 0 0 0 0 0 1 37 0 0 0 0 0 3 10 5 3 3 3 3 7 4
0 0 0 2 13 11 3 0 0 0 0 0 0 0 0 0 0 0 0 0 0 0 15 3 0 0 0 0 4 0 6 3 3 4 3 4 2 1
0 1 0 0 0 0 0 0 0 0 0 0 0 0 0 0 0 0 0 0 0 0 8 0 0 0 0 0 0 1 0 3 2 6 4 3 5 7
0 0 0 0 0 0 0 0 0 0 0 0 0 0 0 0 0 0 0 0 0 0 0 0 0 0 0 0 2 2 1 1 5 1 0 5 2 5
0 0 0 0 0 0 0 0 0 0 0 0 0 0 0 0 0 0 0 0 0 0 0 0 0 0 0 0 0 0 2 0 6 1 1 0 2 4

GFSNE_con_mlcape_033.txt.gz
CAPE
0 8 0 0 0 0 0 0 0 0 0 0 4 6 21 2 0 0 0 0 0 0 0 0 0 0 0 0 0 0 0 0 0 0 0 0 0 0
35 0 0 9 9 0 0 0 0 0 0 0 0 5 28 17 26 5 2 2 3 1 0 0 0 0 0 0 0 0 0 0 0 0 0 0 0 0
38 9 46 30 0 0 2 0 0 0 0 0 0 23 52 32 33 17 16 0 1 7 14 21 3 0 0 0 0 0 0 0 0 0 0 0 0 0
66 28 0 0 0 0 0 0 5 0 0 0 0 2 10 1 12 0 0 14 0 9 15 11 5 0 0 0 0 0 0 0 0 0 0 0 0 0
106 11 1 0 0 48 55 45 55 47 38 14 1 4 9 18 0 26 23 30 20 0 0 0 0 0 0 0 0 0 0 0 0 0 0 0 0 0
285 236 117 15 1 47 3 11 18 25 40 45 25 14 1 0 2 0 0 0 0 0 0 0 0 0 0 0 0 0 0 0 0 0 0 0 0 0
273 144 175 123 175 165 53 16 21 21 9 0 0 0 0 0 0 0 1 0 0 0 0 0 0 0 0 0 0 0 0 0 0 0 0 0 0 0
273 257 244 267 370 374 234 192 84 18 0 0 0 0 0 1 5 1 0 0 0 0 0 0 0 0 0 0 0 0 0 0 0 0 0 0 0 0
385 277 393 276 227 178 86 43 31 13 1 0 0 0 0 0 0 0 0 0 0 0 0 0 0 0 0 0 0 0 0 4 6 0 0 0 0 0
510 526 436 353 330 110 90 42 37 11 0 0 0 0 0 0 10 29 18 0 0 0 0 0 0 0 0 0 0 0 0 0 0 0 0 0 0 0
461 568 499 493 350 320 229 113 41 29 29 1 0 0 0 31 50 23 0 3 0 0 0 8 0 0 0 0 0 0 0 0 0 0 0 0 0 0
88 210 55 370 238 173 89 51 67 47 6 65 93 6 0 0 0 0 3 7 8 1 0 0 0 0 0 0 0 0 0 0 0 0 0 0 0 0
17 107 267 319 106 129 130 72 41 35 16 2 2 0 0 0 0 3 4 6 0 0 0 0 0 0 0 0 0 0 0 0 0 0 0 0 0 0
532 446 309 240 136 54 33 44 2 1 0 0 0 0 0 0 0 0 0 1 0 0 0 0 0 0 6 3 5 0 0 0 0 0 0 0 12 6
386 128 27 8 18 6 5 10 0 0 0 0 0 0 0 0 0 0 0 0 0 0 0 0 0 9 17 13 4 0 0 0 0 1 4 19 5 3
0 0 0 0 0 0 0 0 0 0 0 0 2 2 0 0 0 0 0 0 0 0 0 0 20 29 11 0 0 0 0 0 0 13 0 3 5 4
0 0 0 0 0 0 0 0 0 0 1 5 11 3 0 0 0 0 0 0 0 0 0 0 4 17 3 1 0 0 0 0 8 8 5 4 3 5
0 1 0 0 0 0 0 0 8 15 6 9 6 0 0 0 0 0 0 0 0 0 0 0 0 0 0 0 0 0 0 1 3 6 6 9 2 0
0 0 35 1 0 0 4 16 16 9 8 0 0 0 0 0 0 0 0 0 0 0 0 0 0 0 0 0 0 1 5 4 4 6 6 7 3 2
0 0 0 0 0 0 0 0 0 0 0 0 0 0 0 0 0 0 0 0 0 0 0 1 0 0 0 0 3 0 0 3 5 6 3 2 1 0
0 0 0 0 0 0 0 0 0 0 0 0 0 0 0 0 0 0 0 0 0 0 0 0 0 0 0 0 0 0 0 0 10 5 3 2 3 2
0 0 0 0 0 0 0 0 0 0 0 0 0 0 0 0 0 0 0 0 0 0 0 0 0 0 0 0 0 0 0 0 1 10 1 3 5 3
0 0 0 0 0 0 0 0 0 0 0 0 0 0 0 0 0 0 0 0 0 0 0 0 0 0 0 0 0 0 0 0 1 1 3 2 3 2